#timestamp,LO_Frequency,Hit,StdDev 
1507082415.8,286046993.4,N
1507082435.7,286046993.4,N
1507082455.5,286046992.2,N
1507082475.3,286046992.6,N
1507082495.2,286046993.2,N
1507082515.9,286046991.3,N
1507082535.7,286046992.2,N
1507082555.6,286046989.1,N
1507082575.4,286046989.2,N
1507082595.2,286046992.1,N
1507082615.1,286046993.0,N
1507082616.0,286046993.0,N
1507082635.8,286046992.0,N
1507082655.6,286046994.6,N
1507082675.5,286046992.0,N
1507082695.3,286046991.7,N
1507082715.1,286046996.4,N
1507082735.8,286046992.9,N
1507082755.7,286046990.9,Y
1507082775.5,286046997.4,P
1507082795.3,286046994.1,P
1507082815.2,286046991.8,P
1507082835.0,286046992.2,Y
1507082835.9,286046992.2,P
1507082855.8,286046996.5,P
1507082875.6,286046995.7,N
1507082895.4,286046991.8,Y
1507082915.3,286046997.0,P
1507082935.1,286046998.9,N
1507082936.0,286046998.9,N
1507082955.8,286047002.4,N
1507082975.6,286047000.0,N
1507082995.5,286046998.9,N
1507083015.3,286047001.0,N
1507083035.1,286047000.4,N
1507083055.9,286047002.8,N
1507083075.7,286047000.3,N
1507083095.5,286047000.3,N
1507083115.4,286047000.0,N
1507083135.2,286047001.0,N
1507083155.0,286047000.1,N
1507083155.9,286047000.1,N
1507083175.8,286047002.4,N
1507083195.6,286046999.8,N
1507083215.4,286047000.1,N
1507083235.3,286047002.6,N
1507083255.1,286047001.5,N
1507083256.0,286047001.5,N
1507083275.8,286047004.0,N
1507083295.6,286047001.5,N
1507083315.5,286047002.1,N
1507083335.3,286047003.8,N
1507083355.1,286047003.7,N
1507083375.9,286047002.3,N
1507083395.7,286047002.3,N
1507083415.5,286047000.1,N
1507083435.4,286047000.1,N
1507083455.2,286046999.9,N
1507083475.0,286047002.4,N
1507083475.9,286047002.4,N
1507083495.8,286046999.7,N
1507083515.6,286047000.3,N
1507083535.4,286047001.6,N
1507083555.3,286047003.2,N
1507083575.1,286047003.4,N
1507083576.0,286047003.4,N
1507083595.8,286047005.4,Y
1507083615.7,286047002.9,P
1507083635.5,286047004.7,P
1507083655.3,286047004.6,P
1507083675.2,286047007.5,Y
1507083695.9,286047001.6,P
1507083715.7,286047006.0,P
1507083735.6,286047005.1,N
1507083755.4,286047004.6,N
1507083775.2,286047010.2,Y
1507083795.1,286047003.0,P
1507083796.0,286047003.0,P
1507083815.8,286047003.6,P
1507083835.6,286047005.9,Y
1507083855.5,286047007.6,P
1507083875.3,286047003.4,N
1507083895.1,286047004.2,N
1507083915.9,286047004.7,N
1507083935.7,286047008.1,Y
1507083955.5,286047006.5,P
1507083975.4,286047007.5,P
1507083995.2,286047005.4,P
1507084015.0,286047004.0,Y
1507084015.9,286047004.0,P
1507084035.8,286046996.6,P
1507084055.6,286046998.3,N
1507084075.4,286047000.2,N
1507084095.3,286046997.3,N
1507084115.1,286046993.5,N
1507084116.0,286046993.5,N
1507084135.8,286046989.7,N
1507084155.7,286046992.1,N
1507084175.5,286046995.2,N
1507084195.3,286046996.6,N
1507084215.2,286046997.0,N
1507084235.9,286046997.3,N
1507084255.7,286046995.8,N
1507084275.5,286046994.0,N
1507084295.4,286047001.1,N
1507084315.2,286047001.1,N
1507084335.0,286046999.4,N
1507084335.9,286046999.4,N
1507084355.8,286046995.6,N
1507084375.6,286046997.9,N
1507084395.4,286046997.0,N
1507084415.3,286046998.8,N
1507084435.1,286046993.5,N
1507084436.0,286046993.5,N
1507084455.8,286046993.4,N
1507084475.7,286046994.6,N
1507084495.5,286046992.6,N
1507084515.3,286046991.3,N
1507084535.2,286046992.5,N
1507084555.9,286046998.0,N
1507084575.7,286046997.0,N
1507084595.5,286046995.8,N
1507084615.4,286046996.4,N
1507084635.2,286046992.4,N
1507084655.0,286046995.6,N
1507084655.9,286046995.6,N
1507084675.8,286046991.8,N
1507084695.6,286046994.4,N
1507084715.4,286046991.2,Y
1507084735.3,286046993.6,P
1507084755.1,286046991.8,P
1507084775.8,286046991.2,P
1507084795.7,286046989.4,Y
1507084815.5,286046996.5,P
1507084835.3,286046998.0,N
1507084855.2,286046992.4,P
1507084875.9,286046992.0,Y
1507084895.7,286046993.7,P
1507084915.6,286046994.2,P
1507084935.4,286046992.1,P
1507084955.2,286046992.1,Y
1507084975.1,286046998.5,P
1507084976.0,286046998.5,N
1507084995.8,286046999.3,N
1507085015.6,286046998.1,N
1507085035.5,286046998.9,N
1507085055.3,286046998.3,N
1507085075.1,286046996.5,N
1507085095.9,286046994.9,Y
1507085115.7,286047000.6,P
1507085135.5,286047000.9,N
1507085155.4,286046999.4,N
1507085175.2,286047000.8,N
1507085195.0,286047002.4,N
1507085195.9,286047002.4,N
1507085215.8,286047000.6,N
1507085235.6,286047000.8,N
1507085255.4,286046998.8,N
1507085275.3,286046998.7,N
1507085295.1,286047000.6,N
1507085296.0,286047000.6,N
1507085315.8,286047003.9,N
1507085335.7,286047000.3,N
1507085355.5,286046996.7,N
1507085375.3,286046996.5,N
1507085395.1,286046995.0,N
1507085415.9,286046997.1,N
1507085435.7,286046997.0,N
1507085455.5,286046998.4,N
1507085475.4,286046995.6,N
1507085495.2,286046994.0,N
1507085515.0,286046991.9,Y
1507085515.9,286046991.9,P
1507085535.8,286046993.7,N
1507085555.6,286046996.8,N
1507085575.4,286046999.1,N
1507085595.3,286046997.2,N
1507085615.1,286046997.3,N
1507085616.0,286046997.3,N
1507085635.8,286046997.7,N
1507085655.7,286046996.0,N
1507085675.5,286046996.0,N
1507085695.3,286046992.3,Y
1507085715.2,286046998.9,P
1507085735.9,286046998.1,N
1507085755.7,286047002.8,N
1507085775.6,286047002.3,N
1507085795.4,286047001.7,N
1507085815.2,286047001.6,N
1507085835.1,286047004.2,N
1507085836.0,286047004.2,N
1507085855.8,286047004.0,N
1507085875.6,286047004.4,N
1507085895.5,286047001.3,N
1507085915.3,286047003.6,N
1507085935.1,286047003.8,N
1507085955.9,286047007.4,Y
1507085975.7,286047006.2,P
1507085995.5,286047007.0,P
